Flag for Equatorial Guinea Weather past 2 weeks in Malabo, Equatorial Guinea

Now
73 °F

Thunderstorms. Passing clouds.


Feels Like: 70 °F
Forecast: 74 / 81 °F
Wind: 3 mph from Southwest

Location: Malabo/Fernando Poo

Current Time: Sep 22, 2014 at 5:44:11 AM

Latest Report: Sep 22, 2014 at 5:00 AM


Visibility: N/A

Pressure: 29.92 "Hg

Humidity: 94%

Dew point: 72 °F

Location of MalaboLocation

Historic Weather in Malabo — Graph

°F

Malabo temperature yesterday

Maximum temperature yesterday: 82 °F (at 12:00 PM)
Minimum temperature yesterday: 73 °F (at 5:00 AM)
Average temperature yesterday: 78 °F

Past Weeks' High & Low Weather Summary

 TemperatureHumidityPressure
High84 °F (Sep 11, 1:00 PM)100% (Sep 8, 2:00 AM)30.04 "Hg (Sep 8, 2:00 AM)
Low72 °F (Sep 14, 12:00 AM)70% (Sep 11, 1:00 PM)29.83 "Hg (Sep 10, 5:00 PM)
Average78 °F88%29.92 "Hg
* Reported Sep 7 5:00 AM — Sep 22 5:00 AM, Malabo, Weather by CustomWeather, © 2014

Note: Actual official high and low records may vary slightly from our data, if they occured in-between our weather recording intervals... More about our weather records

Advertising

Malabo weather history for previous 24 hours

 ConditionsComfort  
Time TempWeatherWind HumidityBarometerVisibility
5:00 AM
Sep 22
73 °FThunderstorms. Passing clouds.3 mph94%29.92 "HgN/A
4:00 AM73 °FPassing clouds.1 mph94%29.92 "HgN/A
3:00 AM73 °FPassing clouds.2 mph94%29.92 "HgN/A
2:00 AM75 °FPassing clouds.5 mph89%29.92 "HgN/A
1:00 AM75 °FPassing clouds.3 mph94%29.95 "HgN/A
12:00 AM75 °FPassing clouds.5 mph89%29.95 "HgN/A
11:00 PM
Sep 21
77 °FPassing clouds.No wind83%29.98 "HgN/A
10:00 PM77 °FPassing clouds.7 mph83%29.98 "HgN/A
9:00 PM77 °FPassing clouds.7 mph83%29.95 "HgN/A
7:00 PM77 °FPassing clouds.8 mph89%29.92 "HgN/A
6:00 PM79 °FBroken clouds.9 mph84%29.89 "HgN/A
5:00 PM81 °FScattered clouds.10 mph79%29.86 "HgN/A
4:00 PM82 °FScattered clouds.13 mph74%29.86 "HgN/A
3:00 PM82 °FPartly sunny.12 mph74%29.89 "HgN/A
2:00 PM81 °FPartly sunny.12 mph79%29.92 "HgN/A
1:00 PM82 °FPartly sunny.10 mph74%29.95 "HgN/A
12:00 PM82 °FPartly sunny.9 mph74%29.98 "HgN/A
11:00 AM81 °FThunderstorms. Broken clouds.10 mph79%29.98 "HgN/A
10:00 AM79 °FThunderstorms. Broken clouds.5 mph84%30.04 "HgN/A
9:00 AM77 °FThunderstorms. Broken clouds.6 mph89%30.01 "HgN/A
8:00 AM75 °FThunderstorms. Broken clouds.7 mph94%29.98 "HgN/A
7:00 AM75 °FThunderstorms. Broken clouds.12 mph94%29.98 "Hg5 mi
6:00 AM75 °FPartly cloudy.8 mph94%29.95 "Hg5 mi
5:00 AM73 °FThunderstorms. Partly cloudy.8 mph94%29.95 "Hg4 mi
Weather by CustomWeather, © 2014

See weather overviewHow to use our weather pages